This is the latest recevied weather packets stored in our database for station/object KF4LQQ-13. If no packets are shown the sender has not sent any weather packets the latest 1 day(s).
| Time | Temp. | Humidity | Pressure | Rain* | Wind** | Luminosity | Snow |
|---|---|---|---|---|---|---|---|
| 1836274472 | 27.22° C | - | 1013.9 hPa | 0 mm | 2.24 m/s, 121° | - | - |
| 1836274393 | 27.22° C | - | 1013.9 hPa | 0 mm | 2.24 m/s, 121° | - | - |
| 1836274244 | 26.67° C | - | 1014 hPa | 0 mm | 2.24 m/s, 143° | - | - |
| 1778035604 | 25° C | - | 1013.7 hPa | 0 mm | 0 m/s | - | - |
| 1778035003 | 25.56° C | - | 1013.5 hPa | 0 mm | 0 m/s | - | - |
| 1778034403 | 25.56° C | - | 1013.3 hPa | 0 mm | 0 m/s | - | - |
| 1778033864 | 25.56° C | - | 1013.2 hPa | 0 mm | 0 m/s | - | - |
| 1778033803 | 25.56° C | - | 1013.2 hPa | 0 mm | 0 m/s | - | - |
| 1778033202 | 26.11° C | - | 1013.3 hPa | 0 mm | 2.68 m/s, 24° | - | - |
| 1778032893 | 26.11° C | - | 1013 hPa | 0 mm | 2.68 m/s, 352° | - | - |
| 1778032602 | 26.11° C | - | 1013.2 hPa | 0 mm | 2.24 m/s, 15° | - | - |
| 1778032002 | 26.11° C | - | 1013.1 hPa | 0 mm | 2.24 m/s, 356° | - | - |
| 1778031402 | 26.11° C | - | 1013 hPa | 0 mm | 2.68 m/s, 352° | - | - |
| 1778031023 | 26.11° C | - | 1012.9 hPa | 0 mm | 2.68 m/s, 27° | - | - |
| 1778030801 | 26.11° C | - | 1012.9 hPa | 0 mm | 2.68 m/s, 27° | - | - |
| 1778030201 | 26.67° C | - | 1012.7 hPa | 0 mm | 2.68 m/s, 323° | - | - |
| 1778029601 | 26.11° C | - | 1012.7 hPa | 0 mm | 2.68 m/s, 328° | - | - |
| 1778029072 | 26.11° C | - | 1012.6 hPa | 0 mm | 3.13 m/s, 353° | - | - |
| 1778029001 | 26.11° C | - | 1012.6 hPa | 0 mm | 3.13 m/s, 353° | - | - |
| 1778028400 | 26.11° C | - | 1012.6 hPa | 0 mm | 3.58 m/s, 284° | - | - |
| 1778027800 | 26.11° C | - | 1012.5 hPa | 0 mm | 3.13 m/s, 281° | - | - |
| 1778027200 | 26.11° C | - | 1012.4 hPa | 0 mm | 3.58 m/s, 280° | - | - |
| 1778026599 | 26.11° C | - | 1012.2 hPa | 0 mm | 3.58 m/s, 290° | - | - |
| 1778025999 | 26.11° C | - | 1012.2 hPa | 0 mm | 4.47 m/s, 302° | - | - |
| 1778025398 | 26.67° C | - | 1012.1 hPa | 0 mm | 4.02 m/s, 304° | - | - |
* Rain since midnight (hover to see other rain measurements)
** Current wind speed in m/s (hover to see current wind gust speed)